When you browse on this site, cookies collect data to enhance your experience and personalize the content and advertising you see.
Visit our Privacy Policy to learn more. By continuing to use the site, you agree to this use of cookies and data.
  • en Suisse
  • Liste des pays
  • À 7 jours
  • Température de l'eau
  • Carte météo
  • Widgets météo
  • user-avatar
    Se connecter

    Météo par heure à Martorell

    Ce jour, 23 Septembre, Lundi

    Heure Température Précipitation Vent Pression Humidité
    00:00 +22°C° 0 mm 3 m/s 752 mmHg 68%
    01:00 +22°C° 0 mm 3 m/s 752 mmHg 69%
    02:00 +21°C° 0 mm 2 m/s 751 mmHg 70%
    03:00 +21°C° 0 mm 2 m/s 751 mmHg 72%
    04:00 +20°C° 0 mm 2 m/s 752 mmHg 71%
    05:00 +20°C° 0 mm 2 m/s 752 mmHg 71%
    06:00 +21°C° 0 mm 1 m/s 753 mmHg 72%
    07:00 +21°C° 0 mm 2 m/s 753 mmHg 66%
    08:00 +23°C° 0 mm 2 m/s 753 mmHg 60%
    09:00 +24°C° 0 mm 3 m/s 754 mmHg 54%
    10:00 +25°C° 0 mm 3 m/s 754 mmHg 50%
    11:00 +26°C° 0 mm 4 m/s 753 mmHg 46%
    12:00 +26°C° 0 mm 5 m/s 753 mmHg 42%
    13:00 +27°C° 0 mm 5 m/s 753 mmHg 41%
    14:00 +27°C° 0 mm 5 m/s 753 mmHg 40%
    15:00 +27°C° 0 mm 5 m/s 753 mmHg 39%
    16:00 +26°C° 0 mm 5 m/s 753 mmHg 44%
    17:00 +25°C° 0 mm 4 m/s 752 mmHg 49%
    18:00 +23°C° 0 mm 4 m/s 752 mmHg 54%
    19:00 +22°C° 0 mm 4 m/s 753 mmHg 59%
    20:00 +22°C° 0 mm 3 m/s 753 mmHg 64%
    21:00 +22°C° 0 mm 3 m/s 753 mmHg 69%
    22:00 +21°C° 0 mm 2 m/s 753 mmHg 70%
    23:00 +21°C° 0 mm 2 m/s 753 mmHg 71%

    Demain, 24 Septembre, Mardi

    Heure Température Précipitation Vent Pression Humidité
    00:00 +21°C° 0 mm 2 m/s 753 mmHg 72%
    01:00 +21°C° 0 mm 2 m/s 752 mmHg 71%
    02:00 +21°C° 0 mm 2 m/s 752 mmHg 70%
    03:00 +21°C° 0 mm 2 m/s 752 mmHg 69%
    04:00 +20°C° 0 mm 2 m/s 751 mmHg 68%
    05:00 +20°C° 0 mm 2 m/s 751 mmHg 66%
    06:00 +20°C° 0 mm 2 m/s 751 mmHg 65%
    07:00 +22°C° 0 mm 3 m/s 751 mmHg 57%
    08:00 +25°C° 0 mm 3 m/s 751 mmHg 50%
    09:00 +26°C° 0 mm 4 m/s 751 mmHg 42%
    10:00 +28°C° 0 mm 5 m/s 751 mmHg 39%
    11:00 +29°C° 0 mm 5 m/s 751 mmHg 35%
    12:00 +32°C° 0 mm 6 m/s 750 mmHg 32%
    13:00 +32°C° 0 mm 6 m/s 750 mmHg 32%
    14:00 +32°C° 0 mm 5 m/s 750 mmHg 32%
    15:00 +33°C° 0 mm 5 m/s 749 mmHg 33%
    16:00 +30°C° 0 mm 4 m/s 749 mmHg 37%
    17:00 +29°C° 0 mm 4 m/s 749 mmHg 41%
    18:00 +28°C° 0 mm 3 m/s 749 mmHg 45%
    19:00 +27°C° 0 mm 3 m/s 750 mmHg 49%
    20:00 +26°C° 0 mm 2 m/s 750 mmHg 52%
    21:00 +25°C° 0 mm 2 m/s 750 mmHg 55%
    22:00 +25°C° 0 mm 2 m/s 750 mmHg 57%
    23:00 +24°C° 0 mm 2 m/s 750 mmHg 59%

    Après-demain, 25 Septembre, Mercredi

    Heure Température Précipitation Vent Pression Humidité
    00:00 +24°C° 0 mm 2 m/s 750 mmHg 61%
    01:00 +23°C° 0 mm 2 m/s 750 mmHg 62%
    02:00 +23°C° 0 mm 2 m/s 750 mmHg 63%
    03:00 +23°C° 0 mm 2 m/s 750 mmHg 64%
    04:00 +21°C° 0 mm 2 m/s 750 mmHg 67%
    05:00 +21°C° 0 mm 2 m/s 750 mmHg 70%
    06:00 +21°C° 0 mm 2 m/s 750 mmHg 72%
    07:00 +23°C° 0 mm 2 m/s 750 mmHg 69%
    08:00 +24°C° 0 mm 3 m/s 751 mmHg 65%
    09:00 +25°C° 0 mm 3 m/s 751 mmHg 62%
    10:00 +25°C° 0.1 mm 3 m/s 751 mmHg 61%
    11:00 +25°C° 0.1 mm 4 m/s 751 mmHg 61%
    12:00 +25°C° 0.1 mm 4 m/s 751 mmHg 60%
    13:00 +25°C° 0 mm 4 m/s 751 mmHg 61%
    14:00 +25°C° 0 mm 4 m/s 751 mmHg 62%
    15:00 +23°C° 0 mm 4 m/s 751 mmHg 62%
    16:00 +23°C° 0 mm 4 m/s 751 mmHg 66%
    17:00 +22°C° 0 mm 4 m/s 751 mmHg 70%
    18:00 +21°C° 0 mm 3 m/s 752 mmHg 74%
    19:00 +21°C° 0 mm 3 m/s 752 mmHg 75%
    20:00 +21°C° 0 mm 3 m/s 752 mmHg 76%
    21:00 +21°C° 0 mm 2 m/s 753 mmHg 77%
    22:00 +20°C° 0.1 mm 2 m/s 753 mmHg 79%
    23:00 +20°C° 0.1 mm 2 m/s 753 mmHg 80%

    26 Septembre, Jeudi

    Heure Température Précipitation Vent Pression Humidité
    00:00 +20°C° 0.1 mm 2 m/s 753 mmHg 81%
    01:00 +20°C° 0.2 mm 2 m/s 753 mmHg 81%
    02:00 +20°C° 0.2 mm 2 m/s 753 mmHg 81%
    03:00 +20°C° 0.2 mm 2 m/s 753 mmHg 82%
    04:00 +21°C° 0.1 mm 1 m/s 753 mmHg 80%
    05:00 +21°C° 0.1 mm 1 m/s 753 mmHg 78%
    06:00 +21°C° 0.1 mm 1 m/s 753 mmHg 77%
    07:00 +22°C° 0 mm 1 m/s 754 mmHg 71%
    08:00 +23°C° 0 mm 1 m/s 754 mmHg 64%
    09:00 +24°C° 0 mm 1 m/s 754 mmHg 58%
    10:00 +25°C° 0 mm 1 m/s 754 mmHg 54%
    11:00 +26°C° 0 mm 1 m/s 754 mmHg 50%
    12:00 +27°C° 0 mm 2 m/s 754 mmHg 46%
    13:00 +27°C° 0 mm 2 m/s 754 mmHg 45%
    14:00 +28°C° 0 mm 2 m/s 753 mmHg 44%
    15:00 +28°C° 0 mm 2 m/s 753 mmHg 43%
    16:00 +27°C° 0 mm 2 m/s 753 mmHg 47%
    17:00 +26°C° 0 mm 3 m/s 753 mmHg 51%
    18:00 +25°C° 0 mm 3 m/s 753 mmHg 55%
    19:00 +24°C° 0 mm 3 m/s 753 mmHg 59%
    20:00 +24°C° 0 mm 2 m/s 754 mmHg 63%
    21:00 +23°C° 0 mm 2 m/s 754 mmHg 66%
    22:00 +23°C° 0 mm 2 m/s 754 mmHg 69%
    23:00 +23°C° 0 mm 2 m/s 753 mmHg 72%

    27 Septembre, Vendredi

    Heure Température Précipitation Vent Pression Humidité
    00:00 +23°C° 0 mm 2 m/s 753 mmHg 75%
    01:00 +21°C° 0 mm 2 m/s 753 mmHg 75%
    02:00 +22°C° 0 mm 1 m/s 753 mmHg 76%
    03:00 +22°C° 0 mm 1 m/s 753 mmHg 76%
    04:00 +22°C° 0 mm 1 m/s 753 mmHg 77%
    05:00 +22°C° 0 mm 1 m/s 753 mmHg 77%
    06:00 +22°C° 0 mm 1 m/s 753 mmHg 78%
    07:00 +23°C° 0 mm 1 m/s 753 mmHg 75%
    08:00 +24°C° 0 mm 2 m/s 753 mmHg 72%
    09:00 +25°C° 0 mm 2 m/s 753 mmHg 69%
    10:00 +26°C° 0 mm 3 m/s 753 mmHg 68%
    11:00 +27°C° 0 mm 3 m/s 753 mmHg 67%
    12:00 +27°C° 0 mm 4 m/s 753 mmHg 65%
    13:00 +27°C° 0 mm 4 m/s 753 mmHg 65%
    14:00 +28°C° 0 mm 4 m/s 752 mmHg 64%
    15:00 +28°C° 0 mm 4 m/s 752 mmHg 64%
    16:00 +27°C° 0 mm 4 m/s 752 mmHg 70%
    17:00 +26°C° 0 mm 4 m/s 752 mmHg 76%
    18:00 +25°C° 0 mm 3 m/s 752 mmHg 82%
    19:00 +25°C° 0 mm 3 m/s 753 mmHg 84%
    20:00 +24°C° 0 mm 2 m/s 753 mmHg 85%
    21:00 +24°C° 0 mm 2 m/s 754 mmHg 87%
    22:00 +24°C° 0.1 mm 1 m/s 754 mmHg 85%
    23:00 +24°C° 0.1 mm 1 m/s 754 mmHg 84%

    28 Septembre, Samedi

    Heure Température Précipitation Vent Pression Humidité
    00:00 +24°C° 0.1 mm 1 m/s 754 mmHg 83%
    01:00 +24°C° 0.1 mm 1 m/s 754 mmHg 82%
    02:00 +24°C° 0.1 mm 1 m/s 754 mmHg 81%
    03:00 +23°C° 0.1 mm 1 m/s 754 mmHg 80%
    04:00 +23°C° 0.1 mm 2 m/s 754 mmHg 81%
    05:00 +23°C° 0.1 mm 2 m/s 754 mmHg 81%
    06:00 +23°C° 0.1 mm 2 m/s 754 mmHg 82%
    07:00 +22°C° 0.1 mm 3 m/s 754 mmHg 79%
    08:00 +22°C° 0.1 mm 3 m/s 754 mmHg 77%
    09:00 +24°C° 0.1 mm 3 m/s 755 mmHg 74%
    10:00 +24°C° 0 mm 3 m/s 755 mmHg 72%
    11:00 +24°C° 0 mm 3 m/s 754 mmHg 71%
    12:00 +24°C° 0 mm 3 m/s 754 mmHg 69%
    13:00 +24°C° 0 mm 3 m/s 754 mmHg 69%
    14:00 +25°C° 0 mm 2 m/s 753 mmHg 68%
    15:00 +25°C° 0 mm 2 m/s 753 mmHg 68%
    16:00 +24°C° 0 mm 2 m/s 752 mmHg 72%
    17:00 +24°C° 0 mm 2 m/s 752 mmHg 75%
    18:00 +23°C° 0 mm 1 m/s 752 mmHg 79%
    19:00 +23°C° 0 mm 1 m/s 752 mmHg 81%
    20:00 +22°C° 0 mm 1 m/s 752 mmHg 82%
    21:00 +22°C° 0 mm 1 m/s 753 mmHg 84%
    22:00 +22°C° 0 mm 1 m/s 752 mmHg 85%
    23:00 +22°C° 0 mm 1 m/s 752 mmHg 85%
    Voir plus